OBJECT F, 42830

Orbit data source: Space-Track

You're viewing an Uncataloged Satellite

Recently launched and/or uncataloged satellites may have evolving metadata. Metadata may include but not limited to: Owner, Maufacturer, Bus, Motor, and Mission.

OBJECT F, 42830 is a satellite in LEO that was launched on Fri, 14 Jul 2017 UTC via a SOYUZ-2-1A launch vehicle from the Tyuratam Missile And Space Complex (TTMTR). Unknown objects in Earth's orbit typically refer to objects detected orbiting the Earth but have not yet been identified or cataloged. These objects could be anything from previously untracked satellites, spent rocket stages, debris from satellite collisions, or even natural meteoroids temporarily captured by Earth's gravity.

Loading next visibility...
OBJECT F details
Identifier
42830, 2017-042F
Orbit
LEO
Last TLE update10 hours ago
Origin
Flag of TBDMoscow Polytech (TBD)
ManufacturerMoscow Polytech
MissionNon-operational Amateur Technology
Bus & MotorCUBESAT 3U, Unknown motor
Mass4 kg wet, 4 kg dry
Launch date (UTC)
2017-07-14 (7 years ago)
Launch vehicle
SOYUZ-2-1A
Launch site
Tyuratam Missile And Space Complex (TTMTR)
Object typeUnknown
Shape & HBRBox + Pyramid, 2 m
Radar Cross Section0.035 m², Small (<0.1 m²)

Expand to show TLE details & history

TLE from 10 hours ago
0 OBJECT F
1 42830U 17042F   24337.02195765  .00257223  00000-0  37309-2 0  9990
2 42830  97.3503 173.1633 0003264  77.0932 283.0686 15.54933512403775
Epoch: 2024-12-02T00:31Z
Definitive object data (Epoch: 2024-12-02T00:31:37.14Z)
Latitude-0.00011°
Longitude93.90678°
Altitude404.985 km
Speed7.668 km/s
True Right ascension11h 32m 39s
True Declination0° 00' 00"
Sunlit
Object was in daylight at TLE epoch
Visualization TLE readout
Latitude59.32972°
Longitude-73.18292°
Altitude410.282 km
Speed7.671 km/s
Apparent Right ascension21h 49m 54s
Apparent Declination13° 47' 39"
Sunlit
Object is in full shadow
Visualization observer readout
Local Sidereal Time08:04:58
Azimuth329.945° NNW
Elevation-31.008°
Doppler factor1
Orbital elements
Apogee altitude401.475 km
Perigee altitude397.051 km
Semi-major axis6,777.4 km
Eccentricity0.0003264
Inclination97.3503°
RAAN173.1633°
Arg. of periapsis77.0932°
True anomaly283.03216°
Mean anomaly283.0686°
Eccentric anomaly283.05038°
Mean motion3.88999 °/min
BSTAR0.0037309
Orbital period92.55 mins
Loading maneuver chart data...

OBJECT F Visibility forecast

Observer location: undefined°, undefined

Span
Click to sort rows by Start time (UTC) header in descending order
Start Az.
Max El. time (UTC)
Max El. Az.
Max El.
End time (UTC)
End Az.
4 mins2024-12-02 13:01:25.847Z139.823° SSE2024-12-02 13:03:25.847Z77.894° E33.532°2024-12-02 13:05:25.847Z10.44° NNE
4 mins2024-12-03 01:48:25.847Z40.257° NE2024-12-03 01:50:25.847Z111.599° ESE30.695°2024-12-03 01:52:25.847Z163.466° S
|